Location: Eppenbrunn
(49.1158°N, 7.5601°E)
Time: 01:08:43
(UTC+00:00)

SL-8 Rocket - Pass Details

Date: 09 April 2020
Orbit: 957 x 990 km, 82.9° (Epoch: 30 May)

Event Time Altitude Azimuth Distance (km) Brightness Sun altitude
Rises 19:20:58 0° 353° (N) 3,710 7.5 -11.2°
Reaches altitude 10° 19:23:35 10° 359° (N) 2,760 6.8 -11.6°
Maximum altitude 19:29:45 51° 74° (ENE) 1,235 4.3 -12.5°
Enters shadow 19:35:11 13° 148° (SSE) 2,506 5.6 -13.2°
